Vorticity
11 11 11 10 10 9 9 8 5 5 5 6 5 4 5 4 5 6 5 6 6 10 17 26 28 14 8 11 10 11 11 12 10 9 11 6 2 8 8 4 2 2 4 1 -1 3 7 12 13 7 6 4 2 7 2 -0 14 12 2 5 7 9 7 2 3 2 2 4 6 6 5 4 3 3 5 7 7 4 7 9 5 6 11 13 12 8
14 14 12 12 14 13 11 10 9 8 7 7 6 5 6 4 4 5 4 5 6 9 9 18 33 23 12 13 8 10 14 13 12 9 12 10 2 6 9 6 3 3 3 1 0 2 5 8 8 6 6 9 15 15 0 2 15 3 -2 8 3 1 3 0 4 -2 -8 -2 2 3 5 5 4 3 3 6 9 7 6 7 6 7 11 14 13 8
12 12 9 8 10 9 10 11 10 11 9 9 10 7 6 6 6 5 7 7 3 8 5 9 30 26 14 18 11 6 10 11 14 10 10 13 6 3 6 7 6 3 2 1 0 1 8 12 9 8 11 12 11 7 -1 4 13 -2 -9 2 -2 -6 -0 4 2 -17 -17 1 2 -2 3 6 6 2 3 6 8 9 7 5 6 7 12 15 12 6
11 12 10 8 9 8 8 9 8 10 10 10 11 10 9 8 9 7 7 10 5 6 6 4 23 26 13 17 18 12 10 7 12 15 10 12 12 4 3 7 6 4 2 3 3 -0 5 12 8 7 9 8 7 4 -1 3 11 1 -9 -5 -6 -9 -6 2 -3 -26 -18 8 2 -4 3 7 6 2 4 6 6 9 7 4 6 9 15 16 10 5
7 9 12 10 11 12 10 10 10 10 10 11 10 10 11 10 12 13 9 10 7 6 7 5 18 27 14 11 18 22 24 14 8 16 13 10 14 8 3 5 6 7 3 3 6 -1 2 13 11 6 4 5 6 3 -2 0 7 7 -1 -7 -7 -4 -5 -2 -3 -20 -14 5 1 -1 5 6 6 4 6 6 6 7 6 5 8 10 17 15 8 5
13 11 18 17 13 13 15 14 13 13 11 10 10 9 14 13 11 15 11 11 10 7 8 9 19 27 11 8 16 18 29 28 11 12 16 12 14 11 6 5 5 8 5 2 5 -1 1 10 7 2 5 9 8 -1 -3 2 6 10 10 3 2 4 -1 0 -1 -14 -9 5 4 4 8 8 8 5 5 5 6 7 6 7 9 12 17 13 6 4
42 32 30 30 23 14 11 9 10 17 17 11 12 13 14 15 11 11 10 10 11 10 9 6 15 25 10 5 15 12 22 32 16 9 15 13 14 12 8 6 4 6 7 3 4 3 -1 -0 1 2 2 4 5 -2 -1 3 0 6 11 9 8 5 -0 2 -4 -13 -6 4 6 9 11 9 7 5 6 6 8 9 7 8 9 13 15 10 6 5
39 34 32 36 34 24 18 18 16 17 15 12 17 18 14 13 11 10 8 6 9 11 11 2 3 21 18 5 10 14 23 34 20 8 11 11 13 13 9 7 4 4 7 5 6 5 -1 -3 3 8 1 -1 4 4 4 -1 -7 -2 5 6 6 2 -1 1 -6 -11 -5 4 10 12 9 6 6 7 7 7 9 9 8 8 9 13 14 9 6 5
18 22 26 32 36 33 29 28 23 16 16 21 23 19 16 15 13 14 12 9 13 14 13 5 -2 12 20 5 1 10 24 39 34 16 10 11 13 13 11 8 6 4 6 7 7 6 3 -0 1 6 4 -3 -2 2 5 -1 -10 -10 -3 3 4 -3 -3 -1 -7 -11 -1 9 13 9 6 8 10 10 10 10 11 9 8 7 9 13 12 7 5 6
10 15 18 25 34 36 23 15 17 17 21 26 22 16 18 19 17 18 18 13 14 15 14 10 2 8 17 7 2 10 19 33 40 27 12 10 15 15 11 8 7 6 6 8 8 7 7 3 -1 6 6 -6 -8 -2 2 1 -5 -10 -7 3 4 -2 -0 -1 -7 -3 7 13 10 4 6 11 12 12 11 11 10 8 6 7 11 13 10 6 6 10
11 11 13 22 30 30 18 9 10 13 18 22 19 17 16 17 17 17 18 16 14 15 13 11 8 10 16 11 6 14 22 29 37 35 21 11 15 18 12 8 8 7 6 7 8 6 7 4 -1 5 0 -10 -4 1 1 5 4 -3 -3 0 0 -0 1 -2 -4 5 11 10 7 4 7 11 11 10 10 10 9 7 8 10 11 11 9 6 7 12
20 15 12 14 19 23 23 19 15 12 14 16 19 21 16 14 16 16 15 13 13 15 13 15 18 15 16 14 8 13 24 30 33 33 26 14 14 18 14 8 7 7 5 5 8 8 8 6 2 3 -3 -9 -2 2 3 8 4 -0 0 -2 -1 0 -1 -2 2 10 13 10 7 5 6 8 8 9 10 11 9 8 10 11 11 11 9 6 8 12
21 24 18 11 10 14 13 14 17 12 11 13 14 17 13 10 12 11 11 9 11 17 17 19 18 12 16 17 9 11 21 32 38 33 24 17 14 16 16 11 6 7 6 3 7 9 8 7 4 4 1 -4 -2 -0 3 3 -8 -7 1 -0 1 1 -2 2 8 14 14 9 5 5 4 4 7 10 12 13 11 10 11 10 11 11 7 7 10 11
17 16 16 15 11 13 8 6 14 12 10 12 12 15 13 11 10 7 9 10 10 16 19 19 12 7 15 13 4 11 23 35 43 34 25 21 17 16 17 13 7 6 7 3 4 7 8 9 5 2 1 1 1 -1 4 6 -7 -11 -1 -0 -1 -1 -0 7 14 16 13 7 6 5 2 4 8 10 12 13 12 10 10 11 10 9 7 8 10 10
22 8 10 18 12 13 13 10 14 14 12 11 13 18 13 6 9 8 8 10 10 12 13 14 9 6 13 14 14 26 33 41 44 31 25 25 20 19 17 13 9 7 7 6 3 5 8 10 7 2 -1 -0 2 -1 2 9 -1 -11 -5 -0 -1 -0 3 9 13 14 13 9 7 4 2 5 8 10 12 13 12 10 10 10 9 7 8 8 10 13
29 14 10 21 14 9 12 10 12 12 16 20 16 10 4 7 13 8 5 9 8 7 9 13 12 16 28 34 37 41 39 44 43 27 24 27 22 20 18 13 10 7 8 7 4 4 7 9 7 3 1 -0 2 2 1 4 -1 -9 -4 0 -0 5 9 7 9 16 17 10 5 4 2 4 7 11 13 11 10 11 9 10 8 6 8 9 10 14
24 16 8 21 22 13 11 11 13 11 15 25 17 2 7 20 18 7 6 10 7 7 16 21 18 23 40 42 35 39 41 40 37 27 25 29 24 19 17 14 12 8 7 8 4 3 5 8 7 5 6 4 3 4 2 0 0 -1 1 2 3 9 11 6 9 18 17 7 4 5 1 2 7 9 11 11 10 10 9 9 8 6 8 10 9 9
10 14 14 24 25 19 17 15 17 16 16 23 20 10 12 16 9 6 10 14 13 9 8 13 13 16 34 34 17 26 43 38 30 25 27 30 24 18 19 16 13 10 7 8 6 3 3 6 8 6 6 7 5 7 5 3 4 3 3 6 10 11 7 4 10 17 14 7 6 5 -1 0 7 8 9 10 9 10 10 8 6 7 7 8 8 8
10 19 24 22 13 15 24 23 21 20 17 21 21 15 12 9 6 8 10 15 16 4 -4 7 18 16 27 30 12 21 46 41 26 21 24 29 21 15 20 19 14 11 8 8 7 5 2 2 6 6 6 8 8 7 6 3 3 5 6 10 11 9 5 5 11 15 13 9 5 3 -0 0 5 7 8 9 9 10 10 7 6 7 7 7 8 8
17 18 23 18 8 9 19 29 31 24 18 18 18 16 13 12 14 11 10 14 12 3 -2 8 22 18 22 28 13 17 38 36 24 16 14 22 21 16 22 21 16 13 8 7 7 6 5 2 4 5 5 9 9 7 7 6 7 10 11 12 9 5 5 8 12 13 11 8 5 4 2 1 5 7 7 8 10 11 9 6 5 6 7 7 8 9
19 13 12 17 21 15 14 29 33 23 17 16 17 21 19 18 18 10 12 15 7 3 -1 2 20 21 19 26 15 11 29 30 21 15 7 13 21 21 24 22 17 14 10 9 7 5 7 3 3 5 5 8 10 7 7 7 9 12 11 10 6 3 7 11 12 11 9 7 6 6 4 2 4 7 8 8 10 11 7 5 5 6 7 6 7 8
19 17 7 12 22 14 11 28 37 31 24 19 20 24 21 22 21 11 16 21 7 4 3 5 26 26 17 29 19 5 23 31 19 13 8 8 14 21 25 22 18 14 10 11 9 5 7 5 5 6 4 4 5 4 5 6 8 10 7 6 4 4 9 12 10 8 8 8 7 7 5 4 4 7 9 9 10 11 6 4 6 6 6 7 5 5
20 20 8 12 20 14 10 26 42 40 28 22 27 29 19 19 22 14 14 17 7 6 7 6 22 23 13 27 25 2 10 27 23 15 10 6 10 18 24 21 17 15 11 12 12 8 6 6 7 7 4 3 2 1 3 6 8 7 5 6 7 9 11 11 9 7 7 8 8 7 6 4 4 7 10 10 10 9 6 4 6 5 6 7 6 7
20 11 3 7 16 17 11 21 42 39 24 24 29 25 17 14 18 14 7 10 11 11 9 7 23 28 7 14 31 18 10 16 17 18 17 7 4 12 21 22 18 16 13 11 12 11 7 7 8 8 6 4 2 2 3 5 6 5 7 9 9 11 12 8 6 7 8 7 7 7 7 5 5 8 10 9 9 8 5 4 5 5 6 7 7 8
12 8 7 4 10 21 13 11 34 36 23 26 24 16 17 14 13 13 7 10 15 14 11 12 29 32 6 5 27 26 21 14 4 17 31 16 2 7 16 20 17 15 14 12 12 12 9 8 7 7 8 7 5 8 8 7 6 5 8 10 8 11 11 5 5 8 8 7 7 8 8 6 6 9 9 8 9 8 5 4 5 5 6 7 7 7
7 11 13 3 0 22 27 11 22 40 33 25 19 15 16 13 11 11 10 13 16 14 10 13 28 26 4 9 20 10 18 27 12 16 30 20 8 8 8 13 16 15 13 12 12 12 11 11 9 7 9 9 8 9 9 7 7 7 7 6 6 10 10 3 4 8 7 6 7 9 9 6 7 10 8 7 8 7 5 5 5 5 6 7 7 7
11 12 16 16 2 11 32 15 3 32 42 22 14 14 10 10 11 7 8 12 13 17 12 9 28 28 4 10 23 4 7 31 28 20 24 20 15 11 5 7 13 16 14 12 14 16 13 11 11 10 9 8 7 8 8 7 6 7 7 5 5 10 9 3 5 8 7 6 7 9 9 7 9 10 7 7 9 6 5 5 4 6 6 6 7 7
16 12 12 30 14 -6 20 28 2 11 29 21 16 17 9 9 8 1 6 10 11 22 19 8 27 36 8 3 21 14 6 18 24 22 25 24 17 13 8 3 6 16 20 17 17 20 17 12 11 11 10 9 8 6 7 6 6 7 7 6 10 12 8 4 6 7 6 6 7 10 10 7 8 8 6 7 9 6 5 5 4 5 6 6 7 7
17 18 10 24 17 -12 4 32 16 5 17 20 19 18 12 10 8 4 7 10 14 24 19 8 22 29 8 0 16 21 12 12 19 23 24 23 18 15 11 1 1 11 18 20 20 20 20 15 13 13 13 14 13 8 8 9 9 10 9 10 15 13 6 4 6 6 6 6 6 9 10 7 6 7 6 7 8 6 5 5 4 5 6 6 7 6
12 19 11 15 20 4 3 21 20 12 20 22 15 15 16 14 16 15 12 15 23 23 11 7 16 16 9 11 20 23 16 17 29 29 20 21 21 14 8 2 -1 5 15 20 15 14 18 16 15 18 17 15 12 8 9 12 10 10 12 16 17 10 5 6 6 6 6 5 5 8 10 7 5 6 7 7 7 6 5 5 4 5 6 6 7 6
11 15 11 13 22 17 12 25 31 20 22 22 11 10 15 16 19 22 20 20 18 9 5 12 14 13 18 18 17 20 13 11 32 37 20 19 22 13 7 2 -4 2 18 25 17 11 13 13 16 20 14 9 10 10 10 11 10 9 11 17 17 8 4 5 5 5 5 4 4 7 10 9 7 6 7 7 7 6 6 5 4 4 6 7 7 6
14 23 16 9 16 13 5 21 30 17 16 19 8 3 8 11 16 19 18 18 13 9 14 15 2 3 20 18 12 20 14 4 29 46 26 15 18 13 8 7 6 10 22 31 23 10 7 12 16 15 9 5 7 9 10 8 7 8 12 16 14 7 3 4 5 5 4 4 5 6 9 10 8 7 6 6 6 6 5 5 4 4 6 7 7 6
19 34 22 4 15 20 6 12 24 15 12 15 9 7 9 6 9 15 13 11 15 19 18 11 2 8 26 26 13 17 15 6 28 48 30 11 13 13 10 12 13 14 20 29 25 11 6 11 10 7 9 13 15 17 19 18 15 16 18 16 9 3 2 3 6 5 3 4 5 5 9 11 9 7 6 6 6 6 5 4 4 5 7 7 7 6
11 25 22 9 24 35 16 12 23 18 17 21 10 3 10 10 5 10 18 15 15 16 11 15 26 25 25 24 14 14 17 17 37 55 35 10 9 15 17 15 11 11 21 30 24 12 8 8 9 13 18 20 19 17 14 15 16 15 16 13 7 4 4 4 5 6 4 4 5 6 9 12 10 7 6 6 6 5 4 4 4 5 6 7 7 6
-3 8 13 8 25 36 21 18 24 16 14 23 14 0 10 20 9 4 16 14 8 11 7 8 21 21 13 13 13 15 16 18 38 55 32 3 4 11 13 14 12 14 21 19 11 9 14 16 17 20 19 15 13 9 5 5 7 6 7 10 10 10 9 7 7 6 5 4 5 7 11 12 10 7 6 6 5 5 4 5 5 5 5 6 7 6
-1 4 8 11 27 30 19 21 24 15 8 11 13 10 14 22 18 12 15 7 3 18 18 0 -2 6 10 12 11 15 18 15 28 41 23 -0 2 8 8 10 10 12 18 20 17 18 21 20 18 12 6 6 10 10 8 4 3 5 6 7 11 12 11 9 7 6 6 5 5 9 11 12 10 8 6 5 5 5 5 5 4 4 5 6 6 5
5 5 8 21 31 24 17 11 2 8 20 16 16 19 13 11 13 13 18 14 4 7 8 -4 -9 -2 11 17 10 9 20 23 25 29 19 7 5 6 8 11 6 5 18 27 25 22 18 11 8 3 -2 -1 4 8 9 6 3 7 8 7 9 11 10 8 7 7 6 4 6 10 12 11 10 7 6 5 5 5 5 5 5 3 4 5 6 5
8 5 4 16 24 18 15 3 -14 -2 17 14 15 22 16 12 7 3 14 24 13 -1 -5 1 9 11 16 20 10 4 16 26 25 21 15 11 10 7 7 13 11 8 17 21 11 9 13 10 5 2 -1 1 6 9 12 12 9 10 12 12 13 12 9 8 8 8 6 5 8 11 10 10 9 6 5 5 5 6 5 4 4 3 3 4 6 7
7 6 1 7 17 18 12 2 2 15 16 8 16 22 17 14 11 8 15 20 20 16 8 7 19 24 16 10 10 11 14 17 20 21 16 12 12 6 3 16 26 19 14 14 9 8 14 12 7 4 3 5 9 14 18 19 18 17 17 16 14 13 12 11 10 8 7 7 10 11 10 10 8 5 6 6 5 5 5 5 4 3 4 5 7 9
5 4 3 4 11 20 14 -6 -6 11 14 11 16 18 16 16 13 12 13 9 13 19 15 14 23 23 9 0 7 19 23 20 19 22 22 18 14 4 -2 14 33 26 9 6 8 8 8 6 5 6 8 7 9 13 17 15 14 16 17 16 14 12 12 13 12 9 8 9 10 10 9 9 8 6 5 6 6 5 5 5 4 3 4 5 8 10
6 4 9 6 3 16 21 3 -9 -1 10 14 12 11 17 21 15 11 6 4 10 15 17 21 14 -1 -7 -3 1 9 23 28 21 16 22 26 18 5 -1 7 21 21 9 4 5 6 5 6 7 8 8 8 7 7 8 7 7 11 12 9 8 8 10 13 13 10 8 9 11 11 9 8 8 7 6 5 5 5 4 4 4 3 3 6 10 12
8 7 10 7 2 9 17 13 3 1 7 14 12 9 9 8 11 15 11 7 11 15 19 21 9 -1 8 18 15 12 22 32 25 12 15 25 21 9 -0 -0 6 10 6 4 5 6 7 8 9 10 9 7 4 3 4 3 2 5 7 4 4 7 10 12 12 10 8 8 10 8 7 9 8 5 6 6 4 5 5 4 4 3 3 6 11 10
8 8 8 7 6 8 12 14 7 -1 3 11 13 18 20 10 2 6 9 9 9 10 14 16 13 14 19 22 22 20 22 35 38 23 15 19 20 17 12 5 1 2 4 4 3 4 7 6 4 9 15 10 0 -2 3 4 2 2 4 4 4 6 8 9 12 11 8 7 9 7 6 8 8 5 4 4 5 5 4 4 3 3 8 14 11 5
6 6 5 5 6 5 7 11 8 2 4 7 9 17 25 22 15 10 10 13 14 13 13 9 7 10 11 13 18 15 19 38 45 32 22 18 10 10 17 17 9 4 5 7 7 9 14 15 10 10 16 13 2 -2 4 6 4 3 4 5 5 5 6 7 10 13 11 6 5 7 7 7 6 5 4 5 8 6 2 4 4 3 8 13 5 -2
8 5 4 6 7 5 3 5 8 9 7 6 12 16 9 10 22 24 18 14 13 14 17 15 12 15 15 13 11 7 14 37 46 33 27 27 19 13 14 14 13 14 12 8 7 7 9 17 24 21 15 9 3 1 4 6 7 7 8 8 7 7 8 8 8 13 16 11 6 5 7 7 5 4 6 8 8 4 1 4 5 5 8 8 1 2
10 6 4 5 6 5 3 0 2 10 9 3 11 18 6 -0 12 22 22 19 11 7 11 12 11 15 17 15 13 6 4 17 34 36 28 25 27 27 24 18 9 2 -1 -1 2 2 -3 2 17 23 16 9 5 5 8 9 9 10 9 9 10 12 11 6 3 8 14 15 13 7 4 7 6 4 6 9 6 2 2 3 4 8 11 7 0 3
14 9 6 6 4 3 6 2 -4 4 13 7 4 11 14 12 11 9 9 12 15 15 13 10 8 13 18 18 15 10 4 1 11 26 30 27 23 19 23 31 25 6 -3 -3 -0 1 -0 1 11 17 14 9 5 7 13 14 11 8 7 5 5 10 15 10 4 8 14 18 21 16 8 8 8 5 7 10 6 4 4 3 5 6 8 11 9 3
16 11 7 7 5 3 7 8 -0 -1 10 12 7 10 18 21 17 8 -3 -3 12 26 22 15 13 13 19 24 20 15 15 8 -1 4 19 33 38 25 11 16 25 25 21 15 9 11 16 17 18 18 15 8 2 4 11 13 8 3 3 1 -6 -5 12 21 14 8 10 12 17 19 11 7 8 8 8 8 6 5 4 3 5 3 7 20 20 5
15 14 10 7 6 5 7 8 2 -2 1 7 10 10 11 13 19 24 13 -3 -0 12 14 13 16 9 4 16 23 17 16 15 9 8 10 16 34 44 33 18 16 21 20 15 15 19 20 16 13 16 18 14 8 6 9 11 9 3 4 12 5 -9 -1 16 17 10 5 4 12 19 14 9 9 9 9 8 5 4 6 7 5 2 9 19 12 -4
13 16 15 10 5 6 6 5 3 2 -1 1 6 8 7 9 17 28 25 5 -9 -5 2 10 19 11 -5 3 23 24 13 8 10 16 18 12 14 31 43 38 29 24 21 23 30 33 26 18 15 18 20 13 7 9 11 12 14 8 1 8 11 2 -0 10 16 16 11 6 14 23 17 10 11 11 9 8 5 3 7 8 3 2 10 14 7 1
13 15 17 15 10 6 5 3 4 6 2 -1 2 6 8 10 12 16 23 19 7 4 9 14 21 16 1 6 30 36 21 14 15 16 18 17 9 11 23 30 29 27 27 30 36 40 35 27 24 29 35 29 17 13 9 6 10 12 4 -0 3 7 7 6 8 18 20 13 16 24 16 8 13 15 9 7 6 4 5 4 3 7 13 12 8 9
Height
5650 5651 5654 5656 5656 5655 5654 5654 5655 5655 5656 5658 5659 5660 5662 5663 5667 5672 5671 5673 5672 5670 5674 5680 5684 5689 5692 5696 5701 5703 5707 5714 5722 5730 5736 5742 5745 5748 5751 5755 5760 5766 5772 5779 5784 5787 5789 5791 5794 5797 5801 5805 5809 5812 5815 5817 5820 5822 5824 5826 5828 5830 5832 5834 5835 5836 5838 5839 5839 5839 5839 5839 5839 5839 5840 5840 5840 5839 5839 5838 5837 5836 5835 5835 5835 5835
5643 5645 5649 5649 5647 5646 5646 5646 5647 5648 5650 5652 5653 5655 5657 5658 5663 5667 5665 5666 5665 5662 5669 5675 5676 5680 5685 5688 5691 5693 5697 5706 5715 5722 5729 5736 5740 5742 5746 5750 5756 5761 5768 5774 5779 5782 5784 5787 5790 5793 5797 5801 5804 5808 5811 5814 5817 5819 5821 5823 5825 5827 5829 5831 5832 5833 5835 5836 5836 5836 5836 5836 5836 5836 5837 5837 5837 5837 5836 5836 5835 5834 5833 5833 5833 5833
5637 5640 5643 5640 5638 5638 5639 5640 5641 5642 5644 5646 5648 5649 5651 5655 5658 5660 5659 5659 5658 5656 5662 5669 5667 5672 5678 5680 5682 5685 5688 5699 5709 5714 5722 5730 5734 5736 5740 5746 5751 5756 5762 5768 5772 5776 5780 5783 5787 5790 5794 5797 5800 5804 5807 5810 5813 5816 5818 5820 5822 5824 5826 5828 5829 5830 5832 5832 5833 5832 5832 5833 5833 5833 5833 5834 5834 5834 5834 5834 5833 5832 5831 5831 5831 5831
5632 5636 5636 5632 5631 5632 5633 5635 5635 5636 5638 5639 5641 5642 5646 5652 5651 5651 5653 5651 5650 5650 5655 5660 5659 5663 5671 5672 5674 5677 5682 5691 5701 5707 5714 5722 5727 5732 5736 5740 5746 5751 5757 5763 5767 5772 5776 5779 5782 5786 5790 5794 5796 5799 5802 5806 5810 5813 5816 5818 5820 5821 5823 5824 5826 5827 5828 5829 5830 5830 5830 5831 5831 5830 5830 5831 5831 5832 5832 5832 5831 5830 5829 5829 5829 5829
5629 5632 5628 5625 5625 5626 5627 5629 5630 5631 5632 5633 5635 5636 5642 5646 5644 5643 5645 5643 5642 5644 5649 5654 5650 5653 5663 5665 5666 5671 5675 5681 5691 5698 5705 5714 5722 5727 5731 5734 5739 5745 5752 5757 5762 5767 5771 5775 5779 5783 5787 5790 5793 5795 5799 5803 5807 5811 5813 5815 5817 5818 5819 5821 5822 5824 5825 5826 5827 5827 5827 5828 5828 5827 5827 5827 5828 5829 5829 5829 5829 5828 5827 5827 5826 5827
5625 5625 5620 5618 5619 5620 5621 5623 5624 5624 5625 5627 5630 5634 5637 5638 5635 5635 5637 5636 5634 5638 5647 5649 5640 5642 5655 5656 5656 5663 5666 5672 5682 5689 5697 5707 5716 5721 5725 5729 5734 5740 5746 5751 5757 5762 5766 5771 5775 5779 5783 5786 5789 5792 5795 5800 5803 5807 5809 5811 5813 5815 5816 5817 5819 5821 5823 5824 5825 5825 5825 5825 5825 5824 5824 5824 5825 5826 5826 5827 5827 5826 5825 5825 5824 5824
5617 5615 5611 5611 5613 5612 5613 5617 5620 5618 5618 5622 5629 5631 5629 5628 5628 5628 5630 5627 5627 5635 5644 5641 5631 5633 5644 5647 5650 5655 5659 5665 5672 5679 5689 5699 5708 5715 5719 5725 5729 5734 5740 5745 5751 5757 5761 5766 5770 5775 5779 5782 5786 5790 5793 5796 5799 5802 5805 5807 5809 5811 5813 5814 5816 5818 5820 5821 5821 5822 5821 5821 5821 5821 5821 5821 5822 5823 5824 5824 5824 5824 5823 5823 5822 5822
5609 5608 5606 5606 5606 5606 5608 5612 5614 5611 5611 5619 5625 5622 5618 5620 5620 5621 5622 5620 5621 5628 5633 5632 5629 5627 5631 5640 5647 5649 5652 5658 5663 5671 5682 5692 5701 5709 5715 5720 5725 5729 5735 5740 5745 5751 5755 5760 5765 5771 5776 5780 5784 5788 5790 5793 5796 5799 5802 5804 5806 5808 5809 5811 5813 5815 5817 5818 5818 5818 5818 5818 5818 5818 5818 5818 5819 5820 5821 5821 5821 5821 5821 5820 5820 5820
5603 5603 5602 5601 5601 5602 5605 5607 5606 5605 5607 5615 5617 5611 5610 5613 5613 5615 5616 5614 5616 5617 5619 5627 5630 5622 5622 5634 5640 5642 5645 5651 5656 5664 5675 5686 5695 5704 5709 5715 5721 5725 5730 5734 5740 5745 5750 5755 5760 5766 5772 5776 5780 5784 5786 5790 5793 5795 5798 5800 5803 5805 5806 5808 5810 5813 5814 5815 5814 5815 5815 5815 5815 5815 5815 5815 5816 5817 5818 5818 5818 5818 5818 5818 5818 5818
5599 5598 5598 5598 5599 5600 5601 5601 5601 5601 5604 5608 5607 5605 5607 5607 5608 5611 5610 5610 5611 5606 5609 5623 5628 5619 5616 5624 5631 5634 5638 5645 5651 5658 5668 5679 5688 5697 5703 5709 5714 5719 5723 5728 5733 5739 5745 5750 5756 5761 5767 5772 5776 5779 5783 5786 5788 5790 5793 5796 5799 5801 5803 5805 5808 5811 5812 5811 5811 5812 5812 5812 5812 5812 5812 5813 5814 5814 5815 5815 5815 5815 5816 5816 5816 5816
5597 5596 5594 5595 5596 5596 5597 5597 5597 5598 5600 5601 5601 5601 5602 5602 5603 5605 5604 5606 5604 5598 5605 5619 5623 5616 5609 5613 5623 5627 5632 5641 5646 5651 5660 5671 5680 5688 5695 5700 5706 5710 5714 5720 5727 5732 5739 5744 5750 5756 5761 5766 5770 5774 5777 5781 5783 5786 5789 5792 5795 5797 5800 5802 5806 5808 5808 5808 5808 5808 5809 5809 5809 5808 5809 5810 5811 5811 5812 5812 5812 5812 5813 5813 5814 5813
5596 5594 5592 5592 5592 5592 5593 5593 5594 5595 5595 5597 5597 5597 5597 5597 5599 5599 5600 5600 5595 5595 5605 5613 5616 5610 5600 5604 5616 5621 5627 5635 5638 5642 5652 5662 5671 5680 5686 5691 5697 5702 5707 5713 5719 5725 5732 5738 5743 5748 5753 5759 5763 5767 5771 5775 5778 5781 5784 5788 5791 5794 5797 5799 5803 5804 5804 5805 5805 5805 5806 5806 5805 5805 5806 5807 5808 5808 5808 5809 5809 5810 5810 5811 5811 5811
5595 5593 5591 5590 5589 5589 5589 5590 5590 5590 5591 5592 5593 5593 5592 5593 5594 5593 5594 5594 5591 5594 5602 5606 5607 5601 5594 5599 5610 5614 5621 5628 5630 5635 5645 5655 5664 5672 5678 5684 5689 5695 5700 5705 5712 5718 5725 5731 5737 5742 5747 5752 5756 5761 5766 5770 5774 5777 5780 5784 5787 5790 5793 5795 5798 5800 5801 5802 5802 5802 5802 5803 5802 5802 5803 5804 5804 5805 5805 5806 5806 5807 5808 5808 5808 5808
5595 5592 5591 5589 5587 5587 5586 5587 5587 5587 5587 5587 5589 5588 5587 5588 5589 5588 5590 5590 5589 5591 5595 5599 5598 5591 5590 5598 5604 5610 5616 5622 5626 5631 5640 5650 5659 5666 5672 5677 5681 5687 5693 5698 5704 5711 5717 5725 5732 5737 5741 5746 5751 5757 5761 5765 5769 5773 5776 5780 5783 5786 5789 5792 5795 5796 5797 5798 5798 5799 5799 5799 5799 5800 5800 5801 5801 5802 5802 5803 5804 5805 5805 5806 5805 5805
5593 5591 5589 5587 5586 5585 5584 5584 5585 5584 5583 5583 5584 5584 5583 5585 5586 5586 5587 5587 5587 5588 5590 5594 5592 5586 5590 5597 5602 5605 5610 5615 5621 5628 5636 5646 5654 5660 5665 5669 5674 5679 5686 5692 5697 5703 5711 5719 5726 5731 5736 5741 5747 5753 5757 5761 5765 5768 5772 5776 5779 5782 5785 5789 5791 5792 5793 5794 5795 5795 5796 5796 5796 5796 5797 5797 5798 5799 5800 5800 5801 5802 5803 5803 5803 5803
5591 5588 5586 5586 5585 5584 5582 5581 5581 5581 5580 5580 5580 5579 5580 5583 5583 5582 5583 5583 5584 5584 5586 5590 5587 5584 5589 5594 5596 5598 5601 5608 5617 5624 5631 5640 5648 5653 5657 5661 5665 5670 5678 5684 5690 5697 5704 5712 5719 5725 5730 5736 5742 5748 5752 5756 5760 5764 5769 5772 5776 5779 5782 5785 5786 5788 5789 5790 5791 5792 5793 5793 5793 5793 5794 5794 5795 5796 5797 5798 5799 5800 5800 5800 5801 5801
5590 5587 5584 5583 5582 5581 5580 5579 5578 5577 5577 5576 5576 5576 5578 5580 5579 5578 5579 5581 5582 5581 5583 5585 5583 5582 5586 5587 5590 5593 5595 5603 5614 5621 5627 5635 5642 5646 5649 5653 5657 5662 5670 5678 5685 5692 5699 5706 5713 5719 5725 5731 5737 5742 5747 5751 5756 5761 5765 5769 5772 5775 5779 5781 5782 5784 5785 5786 5787 5788 5789 5790 5790 5790 5791 5791 5792 5793 5794 5795 5796 5797 5798 5798 5798 5798
5590 5586 5583 5581 5580 5578 5576 5575 5574 5573 5573 5573 5573 5574 5576 5576 5575 5576 5577 5578 5580 5579 5579 5580 5581 5582 5583 5583 5588 5592 5593 5601 5612 5619 5625 5632 5636 5638 5641 5646 5651 5657 5665 5673 5680 5687 5694 5702 5708 5714 5720 5726 5732 5737 5742 5747 5753 5758 5762 5765 5769 5772 5775 5776 5778 5779 5780 5782 5783 5785 5786 5786 5787 5787 5788 5788 5789 5790 5792 5793 5794 5795 5795 5795 5795 5796
5588 5585 5582 5579 5577 5575 5573 5571 5570 5569 5570 5570 5571 5571 5572 5572 5573 5574 5575 5576 5577 5576 5576 5578 5579 5580 5581 5583 5588 5591 5594 5601 5609 5615 5620 5625 5628 5630 5633 5640 5646 5653 5660 5667 5675 5682 5690 5697 5703 5709 5715 5721 5727 5733 5738 5744 5749 5753 5757 5761 5765 5768 5770 5771 5772 5774 5776 5778 5780 5781 5782 5783 5783 5784 5785 5785 5786 5788 5789 5790 5791 5792 5792 5792 5793 5794
5587 5584 5581 5577 5575 5573 5570 5568 5566 5566 5566 5566 5567 5568 5568 5569 5571 5572 5573 5574 5574 5574 5575 5576 5577 5578 5580 5583 5586 5588 5592 5598 5604 5609 5614 5617 5619 5622 5628 5635 5642 5648 5655 5662 5670 5678 5685 5692 5699 5705 5710 5717 5723 5728 5734 5739 5743 5748 5752 5756 5760 5763 5764 5766 5768 5771 5773 5775 5776 5777 5778 5779 5780 5781 5782 5783 5784 5785 5786 5787 5788 5789 5789 5790 5791 5791
5586 5583 5580 5577 5573 5571 5568 5565 5563 5562 5562 5562 5564 5565 5565 5567 5569 5570 5570 5571 5572 5573 5573 5574 5575 5577 5579 5581 5582 5584 5588 5593 5599 5605 5608 5611 5615 5619 5625 5631 5636 5643 5650 5657 5665 5673 5681 5688 5695 5701 5707 5713 5719 5724 5729 5734 5739 5744 5748 5752 5755 5757 5759 5762 5765 5767 5769 5771 5772 5773 5774 5776 5777 5778 5779 5780 5781 5782 5784 5784 5785 5786 5787 5788 5789 5789
5586 5582 5579 5576 5572 5570 5566 5562 5560 5559 5559 5560 5561 5562 5563 5565 5567 5567 5567 5569 5571 5571 5572 5573 5573 5575 5577 5578 5581 5583 5586 5590 5596 5601 5605 5609 5613 5618 5623 5627 5633 5640 5647 5653 5661 5669 5677 5685 5692 5698 5703 5709 5714 5718 5724 5729 5735 5739 5743 5747 5750 5752 5755 5758 5761 5763 5765 5766 5768 5769 5771 5772 5773 5775 5776 5777 5778 5780 5781 5781 5782 5783 5784 5785 5786 5786
5585 5581 5578 5575 5571 5568 5565 5561 5558 5558 5558 5558 5560 5561 5562 5564 5565 5566 5567 5570 5571 5570 5572 5572 5571 5573 5576 5578 5582 5584 5586 5589 5593 5597 5602 5607 5611 5615 5620 5625 5631 5637 5644 5650 5658 5666 5674 5681 5688 5695 5700 5705 5709 5714 5719 5726 5731 5735 5739 5743 5745 5748 5751 5755 5757 5759 5761 5763 5764 5766 5767 5768 5770 5772 5773 5774 5776 5777 5778 5779 5779 5780 5781 5782 5783 5783
5584 5580 5577 5574 5571 5567 5564 5561 5558 5557 5557 5557 5559 5561 5562 5563 5565 5566 5568 5570 5570 5569 5571 5571 5569 5571 5575 5578 5581 5584 5586 5588 5591 5594 5599 5603 5608 5613 5618 5624 5629 5635 5641 5648 5655 5662 5670 5678 5684 5691 5696 5701 5706 5710 5717 5723 5727 5731 5735 5738 5741 5744 5747 5751 5753 5754 5757 5759 5760 5762 5763 5765 5767 5769 5770 5772 5773 5774 5775 5776 5776 5778 5778 5779 5780 5780
5583 5579 5576 5573 5570 5566 5563 5561 5558 5557 5557 5557 5559 5561 5562 5563 5565 5566 5568 5569 5568 5569 5571 5570 5568 5572 5576 5577 5580 5583 5585 5588 5590 5592 5597 5601 5606 5611 5616 5621 5627 5632 5638 5644 5651 5658 5666 5674 5681 5687 5693 5698 5703 5708 5714 5719 5723 5726 5730 5733 5737 5740 5743 5746 5748 5750 5753 5755 5756 5758 5760 5762 5764 5766 5767 5769 5770 5771 5772 5772 5774 5775 5776 5777 5777 5778
5584 5580 5576 5573 5570 5566 5563 5560 5558 5557 5557 5558 5560 5561 5562 5564 5565 5566 5568 5568 5568 5570 5571 5569 5569 5573 5576 5577 5579 5581 5584 5587 5589 5592 5596 5600 5604 5608 5613 5619 5624 5630 5635 5641 5648 5655 5663 5671 5678 5684 5689 5694 5700 5705 5710 5715 5718 5722 5726 5729 5732 5735 5739 5742 5744 5747 5749 5751 5752 5754 5756 5759 5761 5763 5764 5765 5767 5768 5768 5769 5771 5772 5773 5774 5774 5775
5584 5581 5578 5575 5571 5568 5565 5562 5560 5559 5559 5559 5560 5562 5563 5565 5566 5567 5567 5567 5569 5570 5570 5570 5571 5574 5576 5578 5580 5581 5583 5586 5589 5592 5595 5598 5602 5606 5612 5618 5623 5628 5632 5638 5646 5653 5660 5667 5673 5679 5685 5690 5696 5701 5706 5711 5714 5718 5721 5725 5728 5731 5735 5738 5740 5743 5745 5747 5749 5751 5753 5756 5758 5760 5761 5762 5764 5765 5765 5766 5768 5769 5770 5771 5771 5772
5585 5582 5579 5576 5573 5571 5567 5563 5561 5561 5561 5560 5561 5563 5564 5565 5566 5566 5567 5568 5570 5569 5570 5572 5574 5575 5577 5579 5578 5579 5582 5584 5587 5589 5592 5596 5601 5606 5612 5618 5622 5626 5630 5636 5644 5651 5657 5664 5670 5676 5681 5687 5692 5697 5701 5706 5709 5713 5716 5719 5723 5727 5731 5733 5736 5739 5741 5743 5745 5747 5750 5752 5755 5756 5757 5759 5760 5761 5762 5764 5765 5767 5768 5768 5769 5769
5586 5583 5580 5577 5575 5572 5569 5566 5563 5562 5562 5562 5562 5563 5565 5566 5566 5567 5568 5569 5570 5569 5571 5574 5575 5575 5577 5578 5577 5579 5581 5582 5585 5588 5591 5595 5600 5606 5612 5617 5621 5624 5628 5634 5642 5648 5654 5661 5667 5673 5678 5683 5688 5692 5696 5700 5704 5707 5710 5714 5718 5723 5726 5729 5732 5735 5737 5739 5742 5744 5746 5749 5751 5753 5754 5756 5757 5758 5759 5761 5762 5764 5765 5765 5766 5766
5587 5584 5580 5578 5576 5573 5571 5568 5565 5564 5564 5564 5563 5565 5566 5566 5567 5568 5569 5570 5570 5570 5572 5574 5574 5576 5577 5577 5578 5579 5580 5582 5585 5589 5592 5595 5599 5605 5611 5615 5619 5623 5627 5632 5639 5645 5651 5657 5663 5669 5675 5680 5684 5689 5693 5696 5700 5703 5706 5710 5714 5718 5722 5725 5728 5731 5733 5736 5738 5740 5743 5745 5748 5749 5751 5752 5754 5755 5756 5758 5759 5761 5762 5762 5763 5763
5587 5584 5581 5578 5576 5574 5571 5568 5566 5566 5565 5565 5565 5566 5567 5567 5568 5569 5570 5571 5571 5572 5574 5575 5575 5577 5578 5577 5578 5578 5579 5581 5584 5587 5591 5595 5599 5605 5610 5614 5619 5623 5626 5630 5636 5642 5648 5653 5659 5665 5671 5676 5681 5686 5689 5693 5696 5699 5702 5707 5711 5715 5718 5721 5724 5727 5730 5732 5734 5736 5739 5742 5744 5746 5747 5749 5750 5751 5753 5755 5756 5758 5759 5760 5760 5761
5586 5584 5581 5578 5576 5574 5572 5569 5567 5567 5567 5566 5566 5566 5567 5568 5570 5571 5572 5572 5573 5574 5575 5575 5576 5578 5578 5578 5578 5578 5579 5581 5583 5585 5589 5594 5598 5604 5609 5613 5617 5621 5624 5628 5634 5640 5645 5651 5657 5663 5668 5673 5678 5682 5686 5689 5692 5694 5698 5703 5707 5711 5714 5717 5720 5723 5726 5728 5730 5732 5735 5738 5741 5742 5744 5745 5747 5748 5749 5751 5753 5755 5756 5757 5757 5758
5586 5583 5581 5579 5576 5574 5573 5570 5568 5568 5569 5568 5568 5568 5569 5570 5571 5572 5573 5573 5574 5574 5575 5575 5576 5577 5577 5578 5578 5579 5581 5582 5584 5586 5590 5593 5598 5604 5608 5612 5615 5619 5623 5626 5631 5637 5643 5649 5655 5661 5666 5671 5675 5679 5683 5685 5687 5691 5695 5700 5704 5707 5710 5712 5716 5719 5721 5724 5726 5728 5731 5735 5737 5739 5741 5742 5743 5744 5746 5748 5750 5751 5753 5754 5754 5755
5588 5584 5582 5579 5576 5574 5573 5571 5570 5570 5570 5570 5571 5571 5571 5571 5572 5573 5574 5574 5574 5575 5575 5576 5576 5577 5577 5578 5579 5580 5582 5583 5585 5588 5591 5594 5598 5602 5606 5610 5614 5617 5621 5625 5630 5635 5641 5647 5652 5658 5663 5667 5672 5675 5678 5680 5683 5687 5691 5695 5698 5702 5705 5708 5711 5714 5717 5720 5722 5725 5728 5731 5734 5736 5737 5738 5739 5741 5743 5745 5747 5748 5749 5750 5751 5752
5589 5586 5584 5581 5577 5575 5573 5573 5572 5572 5572 5572 5572 5573 5572 5572 5573 5574 5575 5575 5575 5575 5576 5576 5577 5577 5577 5578 5579 5580 5581 5582 5584 5587 5591 5594 5598 5602 5605 5609 5612 5616 5620 5625 5631 5635 5640 5645 5650 5655 5660 5664 5667 5670 5672 5675 5678 5681 5685 5689 5692 5696 5700 5704 5707 5710 5713 5716 5719 5721 5724 5728 5730 5732 5734 5735 5736 5737 5740 5742 5743 5745 5746 5747 5748 5748
5590 5588 5586 5583 5579 5576 5575 5575 5574 5575 5575 5574 5574 5574 5573 5573 5574 5575 5575 5576 5576 5576 5576 5576 5577 5578 5579 5579 5580 5580 5580 5581 5583 5587 5591 5595 5599 5602 5605 5607 5611 5615 5620 5625 5630 5634 5639 5644 5649 5653 5657 5661 5664 5667 5669 5670 5673 5676 5681 5685 5689 5693 5697 5700 5703 5706 5709 5712 5715 5718 5721 5725 5727 5728 5730 5731 5733 5735 5737 5738 5740 5741 5742 5743 5744 5745
5591 5589 5587 5584 5581 5578 5577 5577 5576 5576 5576 5575 5574 5574 5573 5573 5574 5575 5575 5576 5576 5576 5577 5577 5577 5578 5580 5580 5580 5580 5580 5582 5584 5588 5591 5595 5599 5602 5604 5607 5610 5614 5619 5623 5628 5633 5638 5642 5647 5651 5654 5658 5661 5663 5665 5667 5670 5673 5677 5681 5685 5690 5693 5696 5699 5702 5705 5708 5712 5715 5718 5721 5723 5725 5726 5728 5729 5732 5733 5735 5736 5737 5738 5740 5741 5741
5591 5590 5589 5586 5583 5581 5580 5579 5578 5577 5576 5575 5575 5574 5574 5574 5575 5575 5575 5575 5576 5576 5577 5577 5576 5578 5579 5579 5579 5580 5581 5583 5586 5588 5591 5594 5597 5600 5603 5606 5609 5613 5617 5622 5627 5632 5636 5641 5645 5648 5651 5654 5657 5659 5662 5665 5668 5671 5674 5678 5682 5686 5689 5692 5695 5698 5701 5705 5708 5711 5714 5717 5718 5721 5723 5724 5726 5728 5729 5731 5732 5733 5735 5736 5737 5738
5591 5590 5590 5588 5586 5584 5582 5580 5580 5578 5577 5577 5576 5574 5574 5575 5575 5575 5575 5575 5576 5576 5576 5576 5577 5578 5578 5578 5579 5580 5581 5584 5587 5589 5591 5594 5596 5599 5602 5605 5608 5612 5616 5621 5626 5631 5636 5640 5643 5646 5648 5651 5653 5656 5660 5663 5665 5668 5671 5675 5678 5681 5685 5688 5692 5695 5699 5702 5705 5707 5710 5712 5714 5716 5718 5720 5722 5724 5725 5726 5728 5730 5731 5733 5734 5735
5591 5591 5591 5590 5587 5585 5583 5582 5581 5580 5579 5578 5577 5575 5575 5575 5575 5575 5575 5576 5576 5576 5576 5576 5577 5578 5578 5579 5580 5580 5581 5584 5587 5589 5591 5594 5596 5599 5602 5604 5607 5612 5616 5621 5626 5631 5635 5639 5642 5644 5646 5649 5652 5655 5658 5660 5663 5666 5670 5673 5675 5677 5681 5684 5688 5691 5694 5697 5700 5702 5705 5707 5709 5712 5714 5716 5717 5719 5721 5722 5724 5726 5728 5729 5731 5732
5592 5592 5591 5590 5588 5586 5584 5583 5582 5581 5580 5579 5578 5576 5575 5575 5575 5575 5575 5575 5575 5575 5575 5576 5577 5578 5579 5580 5581 5581 5581 5583 5586 5588 5591 5593 5596 5599 5602 5604 5607 5611 5616 5620 5624 5629 5633 5636 5640 5642 5645 5648 5651 5654 5656 5659 5662 5665 5667 5669 5671 5674 5678 5680 5683 5686 5689 5692 5695 5698 5700 5703 5705 5707 5709 5711 5713 5715 5717 5719 5721 5723 5725 5726 5727 5729
5594 5592 5591 5589 5588 5587 5585 5583 5583 5582 5581 5580 5579 5577 5576 5576 5575 5574 5574 5575 5575 5575 5575 5576 5577 5578 5579 5580 5580 5580 5581 5581 5583 5587 5590 5593 5596 5599 5601 5604 5607 5611 5614 5618 5622 5626 5630 5633 5637 5640 5643 5646 5649 5652 5654 5657 5660 5662 5664 5666 5669 5672 5674 5674 5676 5679 5683 5686 5689 5692 5695 5698 5700 5702 5704 5706 5708 5711 5713 5716 5718 5720 5721 5723 5725 5726
5593 5592 5590 5589 5588 5587 5585 5583 5582 5581 5580 5579 5579 5578 5577 5576 5576 5575 5575 5575 5575 5576 5576 5577 5577 5578 5578 5579 5579 5579 5580 5580 5582 5585 5589 5592 5595 5597 5600 5603 5606 5610 5613 5616 5619 5623 5627 5630 5633 5637 5640 5643 5646 5649 5651 5653 5656 5658 5659 5662 5665 5666 5667 5668 5670 5674 5677 5681 5684 5687 5690 5693 5695 5697 5699 5702 5705 5708 5711 5712 5714 5716 5718 5720 5721 5722
5591 5590 5589 5587 5587 5587 5585 5583 5582 5581 5580 5579 5579 5578 5577 5576 5576 5576 5576 5576 5576 5576 5577 5577 5577 5577 5578 5578 5577 5578 5579 5579 5580 5583 5587 5590 5593 5596 5598 5601 5605 5609 5612 5615 5617 5620 5623 5627 5630 5633 5637 5640 5642 5645 5647 5649 5650 5651 5653 5657 5659 5661 5663 5665 5667 5669 5671 5675 5678 5681 5685 5687 5690 5692 5695 5699 5702 5705 5707 5708 5710 5713 5715 5716 5718 5718
5589 5588 5587 5586 5585 5585 5584 5583 5582 5581 5581 5580 5579 5578 5577 5577 5576 5576 5575 5576 5576 5576 5576 5576 5576 5577 5578 5578 5577 5578 5578 5579 5580 5582 5584 5587 5590 5593 5596 5599 5603 5606 5610 5613 5615 5618 5620 5623 5627 5630 5634 5637 5639 5641 5643 5644 5645 5647 5651 5654 5656 5657 5660 5662 5664 5666 5668 5669 5672 5676 5680 5683 5686 5689 5693 5696 5699 5701 5702 5705 5707 5710 5712 5713 5713 5714
5587 5586 5585 5585 5584 5583 5583 5583 5583 5582 5581 5581 5580 5579 5578 5577 5576 5576 5576 5576 5576 5576 5575 5575 5575 5576 5577 5578 5578 5578 5578 5578 5579 5581 5583 5585 5587 5590 5593 5596 5600 5603 5606 5609 5612 5615 5617 5620 5624 5627 5630 5632 5634 5636 5638 5639 5642 5646 5649 5651 5652 5654 5656 5658 5661 5664 5666 5666 5668 5672 5676 5679 5683 5686 5689 5692 5694 5696 5699 5701 5704 5707 5709 5709 5710 5711
5585 5585 5585 5584 5584 5583 5583 5583 5583 5581 5581 5580 5580 5579 5578 5577 5577 5577 5576 5576 5576 5575 5575 5575 5575 5575 5576 5577 5577 5577 5578 5579 5580 5580 5582 5583 5585 5587 5590 5593 5597 5600 5602 5605 5609 5612 5615 5618 5621 5623 5625 5627 5629 5631 5633 5635 5639 5643 5647 5648 5649 5651 5654 5657 5660 5662 5664 5665 5666 5669 5673 5676 5679 5682 5685 5688 5690 5693 5696 5699 5701 5703 5705 5706 5706 5708
5583 5583 5584 5584 5583 5583 5583 5583 5583 5581 5580 5580 5580 5579 5578 5577 5577 5577 5576 5576 5576 5574 5574 5575 5575 5575 5575 5575 5576 5577 5577 5578 5579 5580 5581 5582 5583 5585 5588 5590 5593 5596 5599 5602 5606 5610 5613 5616 5618 5620 5621 5623 5625 5627 5630 5634 5637 5641 5646 5649 5649 5650 5653 5655 5657 5659 5662 5664 5666 5668 5671 5674 5676 5679 5681 5684 5686 5690 5694 5696 5698 5699 5700 5701 5703 5704
5582 5582 5582 5582 5582 5581 5582 5583 5582 5581 5580 5579 5579 5578 5578 5577 5577 5576 5576 5576 5576 5575 5575 5575 5575 5575 5575 5575 5576 5576 5577 5577 5578 5579 5580 5581 5583 5585 5587 5589 5592 5594 5597 5600 5604 5607 5610 5613 5616 5617 5618 5619 5621 5624 5629 5634 5637 5640 5644 5646 5647 5648 5650 5652 5654 5656 5658 5660 5662 5665 5668 5671 5673 5676 5678 5680 5683 5687 5690 5692 5694 5695 5695 5697 5698 5699
5580 5580 5580 5581 5580 5579 5579 5581 5581 5580 5579 5579 5578 5578 5578 5577 5576 5575 5575 5575 5575 5575 5575 5576 5575 5576 5576 5576 5575 5575 5576 5577 5578 5579 5580 5581 5583 5585 5587 5589 5592 5594 5597 5600 5602 5604 5608 5611 5613 5615 5616 5618 5621 5624 5628 5632 5634 5637 5640 5641 5642 5643 5646 5648 5651 5652 5653 5655 5657 5660 5664 5667 5670 5673 5675 5678 5681 5684 5687 5688 5689 5690 5691 5693 5694 5695
5578 5578 5578 5578 5578 5577 5577 5578 5579 5579 5579 5579 5578 5577 5577 5577 5576 5575 5574 5575 5575 5575 5575 5575 5575 5576 5576 5575 5574 5574 5575 5576 5577 5578 5579 5580 5581 5583 5585 5588 5590 5593 5595 5598 5600 5602 5605 5608 5610 5612 5614 5617 5620 5623 5626 5628 5631 5634 5637 5639 5639 5641 5644 5646 5648 5649 5650 5652 5653 5656 5659 5662 5666 5669 5672 5675 5678 5681 5683 5685 5686 5687 5688 5689 5691 5691